Location: Peebles
(55.6412°N, 3.1714°W)
Time: 04:36:36
(UTC+01:00)

CUBEBUG 2 - Pass Details

Date: 22 July 2024
Orbit: 553 x 641 km, 97.8° (Epoch: 17 July)

Event Time Altitude Azimuth Distance (km) Brightness Sun altitude
Rises 02:25:56 0° 23° (NNE) 2,811 ? -12.8°
Reaches altitude 10° 02:28:30 10° 39° (NE) 1,890 ? -12.7°
Maximum altitude 02:31:45 23° 92° (E) 1,241 ? -12.6°
Drops below altitude 10° 02:34:57 10° 145° (SE) 1,847 ? -12.5°
Enters shadow 02:35:26 - 149° (SSE) 2,008 ? -12.4°
